Wetbulb
60.98 60.16 58.67 57.04 55.83 55.00 53.95 54.06 53.56 53.28 52.53 52.13 51.32 50.63 49.96 50.21 49.35 48.33 48.32 48.49 48.13 48.45 48.71 48.74 48.57 48.55 48.37 47.65 47.15 47.84 47.36 46.66
60.23 58.43 57.12 55.63 55.07 54.24 53.68 53.17 52.93 52.09 51.40 50.28 50.08 49.07 48.55 47.92 47.66 47.45 47.60 47.63 47.50 47.46 47.39 47.31 47.75 47.30 46.87 46.87 46.09 45.43 45.51 45.76
58.08 56.13 55.22 54.43 54.07 53.86 53.24 52.53 52.06 52.08 52.26 52.50 52.11 49.81 48.97 48.03 47.85 47.16 46.62 46.37 46.25 45.86 45.93 46.02 46.63 46.29 46.54 45.44 45.00 42.99 44.10 44.53
56.21 54.27 53.76 53.96 53.22 52.88 52.43 52.44 52.09 52.38 52.73 51.06 50.23 49.34 47.47 46.65 46.61 46.40 45.44 45.36 45.06 45.08 45.20 45.34 45.54 45.75 44.27 44.36 43.42 41.96 40.37 42.11
56.57 53.93 53.47 53.22 53.01 53.46 52.78 52.33 51.87 51.59 51.43 49.98 48.98 47.81 47.02 48.16 46.71 45.90 45.24 44.85 44.16 43.53 43.99 44.47 44.76 44.56 43.33 43.16 42.44 41.59 40.27 37.44
56.27 54.14 53.85 53.56 53.12 52.52 52.69 51.88 51.37 50.66 50.75 50.83 49.80 48.86 47.88 46.56 45.26 44.74 44.67 44.36 43.42 42.05 42.39 43.06 43.44 43.38 42.80 42.30 41.36 41.07 40.38 37.89
56.66 55.38 54.43 53.28 53.31 52.53 51.82 50.53 50.24 50.47 49.94 49.96 49.39 48.03 46.15 44.48 43.84 43.71 43.79 44.46 44.12 41.50 41.27 42.30 42.60 42.15 41.86 41.66 41.48 41.42 40.09 37.60
55.50 53.85 52.50 52.48 51.96 51.46 50.91 50.30 48.63 48.88 48.51 47.97 47.55 46.63 45.32 44.89 44.08 43.69 42.77 43.17 43.23 40.64 40.69 40.95 40.86 40.98 40.94 41.34 41.29 40.64 39.82 36.00
54.59 54.12 53.05 51.92 51.77 50.24 50.08 49.24 47.71 47.47 47.18 46.20 46.15 45.16 44.46 43.32 43.41 42.87 42.61 42.44 41.07 40.49 40.69 40.01 39.66 40.00 39.98 40.31 40.78 39.51 39.62 38.43
53.56 53.59 52.12 51.13 50.63 50.45 49.92 48.79 47.15 46.35 45.56 44.88 44.26 44.07 42.39 42.02 42.12 42.28 41.40 40.48 38.98 39.45 39.07 38.75 38.50 38.78 38.84 39.24 39.09 37.57 38.16 38.41
52.23 52.86 52.18 51.07 50.43 50.43 49.61 48.58 45.91 45.24 44.75 43.84 42.61 41.38 41.54 41.81 41.39 40.49 40.22 38.98 38.32 37.71 37.97 37.34 37.27 37.56 37.82 38.12 37.72 37.00 36.62 36.83
51.32 52.08 51.63 50.51 49.69 49.12 48.10 47.28 45.89 44.19 43.07 41.78 41.18 40.33 40.29 39.98 39.43 39.10 39.06 38.74 37.62 36.60 36.22 36.01 35.82 36.17 36.41 36.13 35.42 35.06 34.41 34.69
50.69 51.26 50.84 50.14 49.11 47.05 45.94 46.04 43.21 42.67 41.86 40.42 40.37 39.28 39.02 38.57 37.84 38.31 39.08 37.94 37.34 36.28 35.61 35.35 35.15 34.99 35.24 34.11 33.60 33.60 32.68 32.27
49.87 49.21 47.79 40.57 46.18 43.92 44.63 43.01 41.71 40.82 40.04 39.31 39.10 37.60 37.29 37.18 36.92 37.53 37.79 37.57 36.47 35.63 35.21 34.12 33.64 33.87 33.55 33.76 33.50 32.69 32.20 31.54
48.46 47.15 46.41 44.82 44.61 39.39 36.44 40.98 40.14 39.28 38.28 38.65 37.38 37.68 36.31 36.43 36.63 37.02 37.06 37.23 36.39 35.87 35.27 34.35 33.49 33.15 32.89 32.95 32.96 32.86 32.39 31.26
47.45 46.68 45.22 43.60 41.68 39.00 38.67 37.41 35.33 35.09 34.79 35.00 33.53 35.39 34.06 34.75 35.64 36.46 36.80 36.80 36.10 35.86 35.87 35.85 35.01 31.80 29.39 32.44 32.27 31.86 31.49 31.42
46.95 46.58 45.73 43.16 42.03 38.74 37.91 35.66 34.72 34.93 33.17 32.27 32.81 33.64 33.32 34.04 34.92 35.86 35.48 34.98 33.88 33.79 34.66 33.90 32.37 29.86 26.27 27.69 31.03 30.24 30.02 30.01
45.85 45.18 45.14 43.80 41.95 39.03 38.66 37.36 35.89 34.22 32.35 31.53 30.99 30.82 31.17 33.04 34.50 34.72 31.55 32.40 32.50 30.67 31.52 31.22 29.70 28.14 26.16 27.03 28.64 30.35 28.79 28.24
46.66 46.27 45.63 44.53 43.72 42.33 41.49 39.16 36.86 34.70 32.55 31.20 30.60 29.62 29.74 31.38 31.23 30.52 31.51 31.33 30.52 30.52 30.18 30.77 29.20 27.32 25.31 26.28 27.88 30.78 28.93 27.73
MSLP
1006.39 1007.74 1008.99 1010.22 1011.43 1012.84 1013.72 1014.45 1015.28 1015.85 1016.38 1016.84 1017.11 1017.51 1017.76 1018.04 1018.60 1019.42 1019.89 1019.99 1020.16 1020.01 1019.69 1020.08 1020.01 1019.43 1019.26 1019.22 1018.93 1018.49 1018.04 1017.51
1006.17 1007.67 1008.88 1009.96 1011.29 1012.36 1013.20 1013.99 1015.02 1015.46 1015.86 1016.18 1016.59 1017.08 1017.88 1018.44 1019.16 1019.91 1020.00 1020.16 1020.44 1020.35 1020.11 1020.15 1020.18 1019.89 1019.83 1019.57 1019.33 1018.84 1018.13 1017.96
1005.36 1007.29 1008.59 1009.69 1010.85 1011.88 1012.69 1013.81 1014.78 1015.06 1015.27 1015.60 1016.12 1017.00 1017.71 1018.45 1019.28 1019.98 1020.15 1020.42 1020.72 1020.58 1020.77 1020.41 1020.56 1020.28 1020.03 1020.02 1019.74 1019.39 1018.76 1018.68
1004.69 1006.56 1007.95 1009.30 1010.31 1011.35 1012.23 1013.24 1014.30 1014.69 1015.10 1016.05 1016.58 1017.27 1018.20 1018.70 1019.28 1019.55 1020.45 1020.71 1021.01 1021.04 1021.07 1020.99 1020.68 1020.46 1020.35 1020.41 1020.35 1020.08 1019.66 1019.44
1003.58 1005.90 1007.39 1008.73 1009.80 1011.00 1011.85 1012.77 1013.83 1014.65 1015.42 1015.68 1016.12 1016.46 1016.94 1017.62 1018.69 1019.62 1020.29 1020.96 1021.09 1021.33 1021.31 1021.22 1021.01 1020.78 1020.82 1020.72 1020.89 1020.62 1020.50 1020.36
1002.24 1004.54 1006.51 1008.25 1009.53 1010.51 1011.44 1012.52 1013.53 1014.66 1015.10 1015.34 1015.89 1016.16 1017.04 1018.16 1019.01 1019.86 1020.30 1020.84 1021.22 1021.41 1021.49 1021.30 1021.24 1021.07 1021.14 1021.06 1021.09 1020.96 1020.94 1021.16
1001.86 1003.93 1006.06 1007.58 1008.98 1010.23 1011.19 1012.24 1013.20 1014.32 1014.99 1015.47 1015.81 1016.49 1017.23 1018.06 1018.97 1019.47 1019.90 1020.32 1020.69 1021.54 1021.62 1021.53 1021.50 1021.36 1021.17 1020.94 1020.92 1020.96 1021.17 1021.77
1000.94 1002.98 1005.10 1006.83 1008.11 1009.67 1010.82 1011.67 1012.81 1014.07 1014.92 1015.65 1016.29 1016.99 1017.64 1018.08 1018.82 1018.99 1019.61 1020.12 1020.73 1021.52 1021.70 1021.84 1021.72 1021.59 1021.35 1021.28 1020.89 1021.12 1021.34 1022.03
1000.35 1002.19 1004.34 1006.18 1007.73 1009.30 1010.35 1011.15 1012.48 1013.87 1014.90 1015.76 1016.67 1017.30 1017.79 1018.15 1018.78 1019.27 1019.94 1020.35 1021.09 1021.88 1022.10 1021.99 1021.90 1021.67 1021.39 1021.39 1020.91 1021.41 1021.58 1021.65
1000.53 1002.22 1004.09 1005.81 1007.48 1009.09 1010.05 1010.78 1012.25 1013.72 1014.88 1015.97 1016.84 1017.45 1017.81 1018.44 1019.23 1019.90 1020.41 1021.00 1021.61 1022.07 1022.05 1022.05 1022.07 1021.96 1021.79 1021.40 1021.47 1021.84 1021.79 1021.92
1000.78 1002.27 1004.27 1006.02 1007.75 1009.48 1010.92 1011.46 1012.35 1013.67 1014.96 1016.08 1017.04 1017.66 1018.22 1018.63 1019.66 1020.08 1020.82 1021.62 1021.95 1022.13 1022.30 1022.28 1022.22 1022.26 1022.03 1021.73 1021.94 1022.25 1022.18 1022.34
1000.71 1002.26 1004.27 1006.24 1008.04 1009.48 1010.90 1011.82 1012.76 1013.96 1015.05 1016.32 1017.10 1017.77 1018.54 1019.55 1020.10 1020.48 1021.16 1021.79 1021.94 1022.36 1022.46 1022.50 1022.38 1022.49 1022.48 1022.54 1022.56 1022.78 1022.85 1022.69
1001.21 1002.75 1004.43 1006.32 1008.18 1009.72 1011.02 1011.74 1012.84 1013.98 1015.15 1016.29 1017.18 1018.01 1019.01 1019.66 1020.17 1020.76 1021.04 1021.72 1022.18 1022.51 1022.58 1022.64 1022.59 1022.65 1022.88 1022.98 1023.13 1023.12 1023.32 1023.14
1001.97 1003.79 1005.64 1007.28 1009.03 1010.58 1011.38 1012.31 1013.22 1014.04 1015.57 1016.39 1017.26 1018.44 1019.21 1019.91 1020.51 1020.79 1021.57 1021.94 1022.27 1022.48 1022.79 1022.97 1022.99 1023.03 1023.26 1023.37 1023.55 1023.64 1023.67 1023.62
1002.24 1004.14 1006.16 1007.88 1009.67 1011.53 1012.44 1013.06 1013.92 1014.63 1015.72 1016.65 1017.66 1018.68 1019.52 1020.29 1020.63 1021.08 1021.69 1021.84 1022.10 1022.42 1022.82 1022.92 1023.17 1023.38 1023.71 1023.76 1023.74 1023.72 1023.82 1023.88
1002.58 1004.17 1005.87 1007.85 1009.93 1011.69 1012.74 1013.75 1014.63 1015.38 1015.97 1016.89 1018.14 1019.18 1019.96 1020.49 1020.89 1021.15 1021.52 1021.76 1022.07 1022.26 1022.47 1022.65 1023.16 1023.93 1024.58 1024.33 1024.09 1024.01 1023.89 1023.82
1002.61 1004.09 1005.42 1007.21 1008.89 1010.84 1012.37 1013.55 1014.63 1015.66 1016.38 1017.32 1018.54 1019.26 1020.06 1020.55 1020.88 1021.22 1021.71 1022.05 1022.55 1022.72 1022.70 1023.36 1024.03 1024.61 1025.51 1025.23 1024.39 1024.55 1024.31 1024.14
1002.07 1003.43 1004.67 1006.32 1008.10 1009.71 1010.88 1012.52 1014.10 1015.20 1016.41 1017.45 1018.57 1019.45 1020.20 1020.64 1020.88 1021.26 1022.36 1022.74 1023.05 1023.47 1023.91 1024.32 1024.83 1025.50 1025.88 1025.62 1025.28 1025.09 1025.09 1025.14
1001.86 1003.24 1004.51 1006.19 1007.79 1009.38 1010.51 1012.09 1013.36 1014.61 1015.93 1017.32 1018.40 1019.37 1020.19 1020.97 1021.35 1022.00 1022.61 1022.96 1023.23 1023.90 1024.38 1024.53 1025.09 1025.85 1026.00 1025.88 1025.60 1025.44 1025.54 1025.74
Wind_Speed
21 21 19 19 18 18 16 14 14 12 9 7 6 6 6 5 6 5 5 5 7 6 5 6 7 6 7 8 11 10 10 11
21 19 19 19 18 18 18 16 15 11 9 8 7 6 6 5 5 5 5 6 6 6 5 5 7 6 8 9 9 11 9 12
23 22 20 20 20 18 18 16 15 11 8 7 6 7 5 5 5 5 6 5 6 5 6 6 7 6 7 9 10 9 8 10
25 24 23 21 20 19 17 17 15 11 10 8 7 7 6 5 5 5 5 4 4 5 6 5 6 6 6 8 9 11 9 9
26 25 24 22 20 18 18 17 16 12 12 10 11 8 7 5 5 4 5 3 5 5 5 5 5 5 6 7 8 8 9 9
28 28 25 23 21 19 18 17 16 14 12 10 8 6 7 6 5 6 4 5 4 5 5 4 5 4 5 7 7 8 7 7
24 25 24 22 21 19 18 19 17 15 12 11 9 9 8 7 6 5 4 3 3 4 4 4 4 5 5 5 6 8 7 8
23 26 24 22 23 21 19 20 18 15 14 12 10 10 8 8 7 4 4 3 2 4 4 4 4 5 6 6 5 7 7 7
21 24 23 23 22 23 21 22 20 17 15 13 11 11 7 6 4 5 3 3 3 3 2 3 5 5 6 5 5 6 7 6
21 20 21 20 20 20 20 22 20 18 16 13 12 9 9 7 7 5 5 4 4 3 3 3 5 6 6 6 5 7 8 7
20 21 20 18 19 17 17 19 20 19 16 13 11 10 9 9 7 6 6 5 5 4 3 5 5 6 7 7 6 8 8 7
16 19 21 21 20 19 17 17 18 17 14 13 13 10 10 8 7 7 7 6 5 4 4 5 5 6 7 6 7 7 8 8
15 12 19 19 18 18 17 16 17 15 14 13 12 11 10 9 8 7 7 6 5 5 5 5 6 6 6 6 6 6 7 8
15 15 14 9 15 13 16 15 14 14 14 13 13 12 10 9 8 8 7 7 6 6 6 6 6 6 6 5 5 6 6 7
13 16 15 16 16 9 7 13 10 12 12 13 13 10 10 8 8 8 8 7 7 6 6 7 6 6 5 5 5 5 5 7
14 16 18 18 18 14 14 13 9 10 11 11 11 10 11 9 9 9 8 7 6 6 6 6 6 7 6 5 5 5 6 6
16 18 21 22 22 18 16 15 14 14 11 12 12 10 8 9 9 9 8 8 6 5 6 7 6 6 8 8 6 6 7 7
16 17 20 19 20 19 20 19 17 16 13 12 12 11 9 7 10 9 7 6 7 7 6 7 7 7 7 7 7 7 7 8
16 17 18 19 20 19 19 19 18 16 15 14 12 12 10 8 8 9 7 8 8 7 6 6 7 5 6 6 7 6 8 9
Wind_Direction
184 185 181 176 164 167 161 159 150 152 141 143 123 112 100 90 80 72 43 50 22 4 13 4 345 350 356 353 346 346 334 341
188 179 178 174 166 169 166 157 159 159 160 155 146 134 119 104 96 85 69 45 29 17 3 2 356 355 355 355 348 346 345 351
185 183 179 183 172 174 168 162 164 174 163 161 150 132 118 113 115 97 64 51 35 15 5 359 2 342 357 356 2 350 352 3
188 185 186 186 175 176 171 166 168 176 152 135 131 116 125 154 147 135 82 69 47 30 13 356 351 346 2 357 11 359 355 3
189 188 190 188 179 176 173 165 169 168 170 161 161 166 168 121 125 102 124 82 62 30 6 1 359 349 6 4 9 3 4 355
194 189 190 187 178 176 174 165 166 163 180 164 166 167 106 141 139 146 121 117 77 37 9 0 2 4 13 16 6 10 2 354
201 186 186 186 180 174 171 168 166 165 163 158 165 149 145 144 156 160 147 124 114 56 7 7 6 5 14 15 8 8 12 9
199 182 187 184 179 173 169 173 160 161 161 157 151 149 150 145 161 146 150 145 129 63 9 12 13 17 14 5 7 2 7 13
193 183 183 182 175 174 173 170 160 161 157 149 152 145 154 124 144 129 132 117 86 70 31 34 30 25 20 9 17 7 353 11
197 186 179 180 172 176 175 167 159 157 155 150 149 155 133 135 124 143 126 108 122 97 66 52 42 33 24 3 27 18 356 358
192 190 174 174 168 167 175 169 158 155 151 153 153 140 133 128 150 129 125 118 116 92 77 62 52 44 32 25 24 23 5 3
184 187 175 176 172 171 173 168 157 154 151 151 147 129 126 142 141 137 135 137 117 113 92 77 68 52 43 40 36 26 14 12
183 164 167 177 174 161 173 161 154 154 144 152 133 129 148 150 148 150 135 135 125 113 93 79 70 63 53 46 40 30 26 21
173 163 161 136 158 165 167 155 150 141 150 142 136 143 151 150 154 136 150 151 145 122 98 81 66 61 54 54 46 45 38 30
169 167 163 154 155 132 115 141 137 144 142 141 140 148 133 157 150 156 166 162 148 130 125 105 89 65 56 57 47 54 57 57
184 180 165 170 158 153 150 142 139 135 134 128 131 137 144 158 159 170 159 153 143 142 131 110 95 79 35 19 63 57 55 53
194 187 175 181 172 168 168 161 153 144 136 134 136 140 148 156 172 162 154 148 100 56 105 90 73 64 55 35 37 69 41 56
192 188 182 180 175 172 172 164 161 156 144 140 143 141 146 162 170 141 112 107 116 109 97 103 92 85 77 66 59 69 68 55
189 185 181 176 174 172 166 162 164 160 156 151 147 148 150 158 120 129 151 137 137 138 140 135 121 109 95 76 78 76 75 63